Time,TemperatureF,DewpointF,PressureIn,WindDirection,WindDirectionDegrees,WindSpeedMPH,WindSpeedGustMPH,Humidity,HourlyPrecipIn,Conditions,Clouds,dailyrainin,SoftwareType,DateUTC
2013-02-09 00:02:00,65.0,64.0,30.03,NNW,338,0.0,0.0,97,0.00,,,0.00,,2013-02-09 05:02:00,
2013-02-09 00:12:00,65.0,64.0,30.03,NNW,338,0.0,0.0,97,0.00,,,0.00,,2013-02-09 05:12:00,
2013-02-09 00:22:00,64.0,63.0,30.03,NNW,338,0.0,0.0,97,0.00,,,0.00,,2013-02-09 05:22:00,
2013-02-09 00:32:00,64.0,63.0,30.03,ESE,112,0.0,0.0,98,0.00,,,0.00,,2013-02-09 05:32:00,
2013-02-09 00:42:00,64.0,63.0,30.03,ESE,112,0.0,0.0,98,0.00,,,0.00,,2013-02-09 05:42:00,
2013-02-09 00:52:00,64.0,63.0,30.03,SSE,158,0.0,0.0,98,0.00,,,0.00,,2013-02-09 05:52:00,
2013-02-09 01:01:00,64.0,63.0,30.02,NW,323,0.0,0.0,98,0.00,,,0.00,,2013-02-09 06:01:00,
2013-02-09 01:11:00,64.0,63.0,30.02,NW,323,0.0,0.0,98,0.00,,,0.00,,2013-02-09 06:11:00,
2013-02-09 01:21:00,64.0,63.0,30.03,East,94,0.0,0.0,98,0.00,,,0.00,,2013-02-09 06:21:00,
2013-02-09 01:32:00,64.0,64.0,30.02,NNW,338,0.0,0.0,99,0.00,,,0.00,,2013-02-09 06:32:00,
2013-02-09 01:42:00,64.0,64.0,30.02,NNW,338,0.0,0.0,99,0.00,,,0.00,,2013-02-09 06:42:00,
2013-02-09 01:52:00,64.0,64.0,30.02,NNW,338,0.0,0.0,99,0.00,,,0.00,,2013-02-09 06:52:00,
2013-02-09 02:01:00,64.0,64.0,30.02,NNW,338,0.0,0.0,99,0.00,,,0.00,,2013-02-09 07:01:00,
2013-02-09 02:11:00,64.0,64.0,30.02,NNW,338,0.0,0.0,99,0.00,,,0.00,,2013-02-09 07:11:00,
2013-02-09 02:21:00,64.0,64.0,30.02,NNW,338,0.0,0.0,99,0.00,,,0.00,,2013-02-09 07:21:00,
2013-02-09 02:31:00,63.0,63.0,30.01,ESE,112,0.0,0.0,99,0.00,,,0.00,,2013-02-09 07:31:00,
2013-02-09 02:42:00,63.0,63.0,30.01,ESE,112,0.0,0.0,99,0.00,,,0.00,,2013-02-09 07:42:00,
2013-02-09 02:52:00,63.0,63.0,30.02,SSE,158,0.0,0.0,99,0.00,,,0.00,,2013-02-09 07:52:00,
2013-02-09 03:01:00,63.0,63.0,30.01,South,180,0.0,0.0,99,0.00,,,0.00,,2013-02-09 08:01:00,
2013-02-09 03:11:00,63.0,63.0,30.01,South,180,0.0,0.0,99,0.00,,,0.00,,2013-02-09 08:11:00,
2013-02-09 03:21:00,63.0,63.0,30.02,South,180,0.0,0.0,99,0.00,,,0.00,,2013-02-09 08:21:00,
2013-02-09 03:31:00,63.0,63.0,30.02,South,180,0.0,0.0,99,0.00,,,0.00,,2013-02-09 08:31:00,
2013-02-09 03:42:00,63.0,63.0,30.02,South,180,0.0,0.0,99,0.00,,,0.00,,2013-02-09 08:42:00,
2013-02-09 03:52:00,63.0,63.0,30.02,SSW,212,0.0,0.0,99,0.00,,,0.00,,2013-02-09 08:52:00,
2013-02-09 04:03:00,65.0,65.0,30.02,NNW,338,0.0,0.0,99,0.00,,,0.00,,2013-02-09 09:03:00,
2013-02-09 04:11:00,65.0,65.0,30.02,NNW,338,0.0,0.0,99,0.00,,,0.00,,2013-02-09 09:11:00,
2013-02-09 04:21:00,66.0,66.0,30.02,West,259,0.0,0.0,99,0.00,,,0.00,,2013-02-09 09:21:00,
2013-02-09 04:32:00,67.0,67.0,30.02,East,98,0.0,0.0,99,0.00,,,0.00,,2013-02-09 09:32:00,
2013-02-09 04:42:00,67.0,67.0,30.02,East,98,0.0,0.0,99,0.00,,,0.00,,2013-02-09 09:42:00,
2013-02-09 04:52:00,67.0,67.0,30.02,North,4,0.0,2.0,99,0.00,,,0.00,,2013-02-09 09:52:00,
2013-02-09 05:01:00,67.0,67.0,30.02,South,189,0.0,0.0,99,0.00,,,0.00,,2013-02-09 10:01:00,
2013-02-09 05:11:00,67.0,67.0,30.02,South,189,0.0,0.0,99,0.00,,,0.00,,2013-02-09 10:11:00,
2013-02-09 05:21:00,67.0,67.0,30.03,SSW,207,0.0,2.0,99,0.00,,,0.00,,2013-02-09 10:21:00,
2013-02-09 05:32:00,67.0,67.0,30.03,NNW,331,0.0,0.0,99,0.00,,,0.00,,2013-02-09 10:32:00,
2013-02-09 05:42:00,67.0,67.0,30.03,NNW,331,0.0,0.0,99,0.00,,,0.00,,2013-02-09 10:42:00,
2013-02-09 05:52:00,67.0,67.0,30.04,NNW,348,0.0,0.0,99,0.00,,,0.00,,2013-02-09 10:52:00,
2013-02-09 06:01:00,66.0,66.0,30.04,North,3,0.0,0.0,99,0.00,,,0.00,,2013-02-09 11:01:00,
2013-02-09 06:11:00,66.0,66.0,30.04,North,3,0.0,0.0,99,0.00,,,0.00,,2013-02-09 11:11:00,
2013-02-09 06:22:00,65.0,65.0,30.05,SSW,198,0.0,0.0,99,0.00,,,0.00,,2013-02-09 11:22:00,
2013-02-09 06:32:00,64.0,64.0,30.06,SE,126,0.0,0.0,99,0.00,,,0.00,,2013-02-09 11:32:00,
2013-02-09 06:41:00,64.0,64.0,30.06,SE,126,0.0,0.0,99,0.00,,,0.00,,2013-02-09 11:41:00,
2013-02-09 06:52:00,64.0,64.0,30.06,WNW,296,0.0,0.0,99,0.00,,,0.00,,2013-02-09 11:52:00,
2013-02-09 07:02:00,64.0,64.0,30.07,NNW,338,0.0,0.0,99,0.00,,,0.00,,2013-02-09 12:02:00,
2013-02-09 07:11:00,64.0,64.0,30.07,NNW,338,0.0,0.0,99,0.00,,,0.00,,2013-02-09 12:11:00,
2013-02-09 07:22:00,63.0,63.0,30.07,NW,326,0.0,0.0,99,0.00,,,0.00,,2013-02-09 12:22:00,
2013-02-09 07:32:00,63.0,63.0,30.08,NW,314,0.0,0.0,99,0.00,,,0.00,,2013-02-09 12:32:00,
2013-02-09 07:42:00,63.0,63.0,30.08,NW,314,0.0,0.0,99,0.00,,,0.00,,2013-02-09 12:42:00,
2013-02-09 07:52:00,63.0,63.0,30.09,NW,315,0.0,0.0,99,0.00,,,0.00,,2013-02-09 12:52:00,
2013-02-09 08:02:00,64.0,64.0,30.09,North,1,1.0,3.0,99,0.00,,,0.00,,2013-02-09 13:02:00,
2013-02-09 08:11:00,64.0,64.0,30.09,North,1,1.0,3.0,99,0.00,,,0.00,,2013-02-09 13:11:00,
2013-02-09 08:22:00,66.0,66.0,30.09,North,0,2.0,3.0,99,0.00,,,0.00,,2013-02-09 13:22:00,
2013-02-09 08:32:00,68.0,66.0,30.10,NE,37,1.0,3.0,92,0.00,,,0.00,,2013-02-09 13:32:00,
2013-02-09 08:42:00,68.0,66.0,30.10,NE,37,1.0,3.0,92,0.00,,,0.00,,2013-02-09 13:42:00,
2013-02-09 08:52:00,70.0,66.0,30.10,NNW,348,2.0,5.0,87,0.00,,,0.00,,2013-02-09 13:52:00,
2013-02-09 09:01:00,73.0,68.0,30.10,North,349,1.0,3.0,84,0.00,,,0.00,,2013-02-09 14:01:00,
2013-02-09 09:11:00,73.0,68.0,30.10,North,349,1.0,3.0,84,0.00,,,0.00,,2013-02-09 14:11:00,
2013-02-09 09:21:00,74.0,67.0,30.10,North,353,3.0,5.0,80,0.00,,,0.00,,2013-02-09 14:21:00,
2013-02-09 09:32:00,75.0,68.0,30.11,NNE,22,3.0,5.0,78,0.00,,,0.00,,2013-02-09 14:32:00,
2013-02-09 09:42:00,75.0,68.0,30.11,NNE,22,3.0,5.0,78,0.00,,,0.00,,2013-02-09 14:42:00,
2013-02-09 09:52:00,76.0,68.0,30.11,ENE,69,3.0,5.0,76,0.00,,,0.00,,2013-02-09 14:52:00,
2013-02-09 10:02:00,77.0,67.0,30.12,NNE,21,5.0,7.0,72,0.00,,,0.00,,2013-02-09 15:02:00,
2013-02-09 10:11:00,77.0,67.0,30.12,NNE,21,5.0,7.0,72,0.00,,,0.00,,2013-02-09 15:11:00,
2013-02-09 10:21:00,79.0,68.0,30.12,ENE,59,5.0,8.0,68,0.00,,,0.00,,2013-02-09 15:21:00,
2013-02-09 10:32:00,77.0,67.0,30.13,ENE,57,3.0,6.0,71,0.00,,,0.00,,2013-02-09 15:32:00,
2013-02-09 10:42:00,77.0,67.0,30.13,ENE,57,3.0,6.0,71,0.00,,,0.00,,2013-02-09 15:42:00,
2013-02-09 10:52:00,78.0,67.0,30.13,North,10,6.0,8.0,68,0.00,,,0.00,,2013-02-09 15:52:00,
2013-02-09 11:01:00,77.0,66.0,30.14,North,1,5.0,7.0,70,0.00,,,0.00,,2013-02-09 16:01:00,
2013-02-09 11:11:00,77.0,66.0,30.14,North,1,5.0,7.0,70,0.00,,,0.00,,2013-02-09 16:11:00,
2013-02-09 11:22:00,77.0,65.0,30.14,NNW,342,6.0,8.0,67,0.00,,,0.00,,2013-02-09 16:22:00,
2013-02-09 11:32:00,77.0,66.0,30.13,NNE,26,5.0,9.0,68,0.00,,,0.00,,2013-02-09 16:32:00,
2013-02-09 11:42:00,77.0,66.0,30.13,NNE,26,5.0,9.0,68,0.00,,,0.00,,2013-02-09 16:42:00,
2013-02-09 11:52:00,80.0,66.0,30.14,East,85,6.0,12.0,62,0.00,,,0.00,,2013-02-09 16:52:00,
2013-02-09 12:01:00,82.0,66.0,30.13,East,87,8.0,13.0,58,0.00,,,0.00,,2013-02-09 17:01:00,
2013-02-09 12:21:00,82.0,65.0,30.13,NE,45,6.0,12.0,57,0.00,,,0.00,,2013-02-09 17:21:00,
2013-02-09 12:32:00,82.0,66.0,30.13,NNE,12,6.0,12.0,59,0.00,,,0.00,,2013-02-09 17:32:00,
2013-02-09 12:52:00,82.0,66.0,30.13,NE,46,6.0,7.0,58,0.00,,,0.00,,2013-02-09 17:52:00,
2013-02-09 13:02:00,81.0,65.0,30.12,North,8,6.0,10.0,58,0.00,,,0.00,,2013-02-09 18:02:00,
2013-02-09 13:12:00,81.0,65.0,30.12,North,8,6.0,10.0,58,0.00,,,0.00,,2013-02-09 18:12:00,
2013-02-09 13:23:00,82.0,65.0,30.12,NE,56,5.0,9.0,56,0.00,,,0.00,,2013-02-09 18:23:00,
2013-02-09 13:32:00,82.0,65.0,30.12,ENE,76,6.0,10.0,56,0.00,,,0.00,,2013-02-09 18:32:00,
2013-02-09 13:42:00,82.0,65.0,30.12,ENE,76,6.0,10.0,56,0.00,,,0.00,,2013-02-09 18:42:00,
2013-02-09 13:52:00,82.0,64.0,30.11,NNE,31,6.0,7.0,55,0.00,,,0.00,,2013-02-09 18:52:00,
2013-02-09 14:01:00,82.0,64.0,30.11,SE,136,5.0,9.0,55,0.00,,,0.00,,2013-02-09 19:01:00,
2013-02-09 14:11:00,82.0,64.0,30.11,SE,136,5.0,9.0,55,0.00,,,0.00,,2013-02-09 19:11:00,
2013-02-09 14:22:00,82.0,64.0,30.11,ESE,115,6.0,8.0,55,0.00,,,0.00,,2013-02-09 19:22:00,
2013-02-09 14:32:00,83.0,64.0,30.11,NNW,338,6.0,6.0,53,0.00,,,0.00,,2013-02-09 19:32:00,
2013-02-09 14:52:00,79.0,65.0,30.11,NNE,14,6.0,10.0,63,0.00,,,0.00,,2013-02-09 19:52:00,
2013-02-09 15:01:00,78.0,65.0,30.10,NE,45,5.0,7.0,64,0.00,,,0.00,,2013-02-09 20:01:00,
2013-02-09 15:11:00,78.0,65.0,30.10,NE,45,5.0,7.0,64,0.00,,,0.00,,2013-02-09 20:11:00,
2013-02-09 15:21:00,79.0,65.0,30.10,NNE,22,5.0,9.0,62,0.00,,,0.00,,2013-02-09 20:21:00,
2013-02-09 15:32:00,79.0,66.0,30.10,SSE,154,6.0,9.0,64,0.00,,,0.00,,2013-02-09 20:32:00,
2013-02-09 15:42:00,79.0,66.0,30.10,SSE,154,6.0,9.0,64,0.00,,,0.00,,2013-02-09 20:42:00,
2013-02-09 15:52:00,78.0,64.0,30.11,SW,229,6.0,7.0,63,0.00,,,0.00,,2013-02-09 20:52:00,
2013-02-09 16:02:00,77.0,65.0,30.10,ENE,71,5.0,7.0,66,0.00,,,0.00,,2013-02-09 21:02:00,
2013-02-09 16:12:00,77.0,65.0,30.10,ENE,71,5.0,7.0,66,0.00,,,0.00,,2013-02-09 21:12:00,
2013-02-09 16:21:00,78.0,64.0,30.10,NNE,22,4.0,9.0,62,0.00,,,0.00,,2013-02-09 21:21:00,
2013-02-09 16:32:00,78.0,64.0,30.11,SE,139,4.0,6.0,63,0.00,,,0.00,,2013-02-09 21:32:00,
2013-02-09 16:42:00,78.0,64.0,30.11,SE,139,4.0,6.0,63,0.00,,,0.00,,2013-02-09 21:42:00,
2013-02-09 16:52:00,77.0,63.0,30.12,NNE,31,5.0,8.0,63,0.00,,,0.00,,2013-02-09 21:52:00,
2013-02-09 17:01:00,78.0,65.0,30.11,NW,321,4.0,8.0,64,0.00,,,0.00,,2013-02-09 22:01:00,
2013-02-09 17:11:00,78.0,65.0,30.11,NW,321,4.0,8.0,64,0.00,,,0.00,,2013-02-09 22:11:00,
2013-02-09 17:21:00,77.0,64.0,30.12,ENE,68,4.0,8.0,65,0.00,,,0.00,,2013-02-09 22:21:00,
2013-02-09 17:32:00,77.0,64.0,30.12,NE,43,3.0,5.0,65,0.00,,,0.00,,2013-02-09 22:32:00,
2013-02-09 17:42:00,77.0,64.0,30.12,NE,43,3.0,5.0,65,0.00,,,0.00,,2013-02-09 22:42:00,
2013-02-09 17:52:00,76.0,64.0,30.12,NW,314,4.0,9.0,66,0.00,,,0.00,,2013-02-09 22:52:00,
2013-02-09 18:02:00,74.0,63.0,30.12,NNE,29,5.0,7.0,69,0.00,,,0.00,,2013-02-09 23:02:00,
2013-02-09 18:11:00,74.0,63.0,30.12,NNE,29,5.0,7.0,69,0.00,,,0.00,,2013-02-09 23:11:00,
2013-02-09 18:21:00,73.0,63.0,30.12,ENE,64,6.0,8.0,71,0.00,,,0.00,,2013-02-09 23:21:00,
2013-02-09 18:32:00,73.0,63.0,30.13,East,82,3.0,6.0,72,0.00,,,0.00,,2013-02-09 23:32:00,
2013-02-09 18:42:00,73.0,63.0,30.13,East,82,3.0,6.0,72,0.00,,,0.00,,2013-02-09 23:42:00,
2013-02-09 18:52:00,72.0,62.0,30.13,North,2,3.0,6.0,72,0.00,,,0.00,,2013-02-09 23:52:00,
2013-02-09 19:02:00,72.0,62.0,30.14,East,82,3.0,7.0,72,0.00,,,0.00,,2013-02-10 00:02:00,
2013-02-09 19:12:00,72.0,62.0,30.14,East,82,3.0,7.0,72,0.00,,,0.00,,2013-02-10 00:12:00,
2013-02-09 19:22:00,72.0,63.0,30.14,ESE,112,3.0,8.0,73,0.00,,,0.00,,2013-02-10 00:22:00,
2013-02-09 19:32:00,72.0,63.0,30.14,WSW,251,4.0,8.0,73,0.00,,,0.00,,2013-02-10 00:32:00,
2013-02-09 19:42:00,72.0,63.0,30.14,WSW,251,4.0,8.0,73,0.00,,,0.00,,2013-02-10 00:42:00,
2013-02-09 19:52:00,72.0,63.0,30.14,ESE,111,5.0,7.0,73,0.00,,,0.00,,2013-02-10 00:52:00,
2013-02-09 20:01:00,71.0,62.0,30.15,SSE,164,3.0,8.0,73,0.00,,,0.00,,2013-02-10 01:01:00,
2013-02-09 20:12:00,71.0,62.0,30.15,SSE,164,3.0,8.0,73,0.00,,,0.00,,2013-02-10 01:12:00,
2013-02-09 20:22:00,71.0,62.0,30.14,ENE,64,5.0,9.0,73,0.00,,,0.00,,2013-02-10 01:22:00,
2013-02-09 20:32:00,71.0,62.0,30.16,NW,324,3.0,7.0,72,0.00,,,0.00,,2013-02-10 01:32:00,
2013-02-09 20:42:00,71.0,62.0,30.16,NW,324,3.0,7.0,72,0.00,,,0.00,,2013-02-10 01:42:00,
2013-02-09 20:52:00,71.0,62.0,30.16,ENE,57,4.0,7.0,72,0.00,,,0.00,,2013-02-10 01:52:00,
2013-02-09 21:01:00,71.0,62.0,30.16,ENE,58,4.0,10.0,73,0.00,,,0.00,,2013-02-10 02:01:00,
2013-02-09 21:11:00,71.0,62.0,30.16,ENE,58,4.0,10.0,73,0.00,,,0.00,,2013-02-10 02:11:00,
2013-02-09 21:22:00,71.0,62.0,30.16,WNW,293,3.0,7.0,74,0.00,,,0.00,,2013-02-10 02:22:00,
2013-02-09 21:32:00,71.0,62.0,30.16,ENE,64,3.0,9.0,72,0.00,,,0.00,,2013-02-10 02:32:00,
2013-02-09 21:42:00,71.0,62.0,30.16,ENE,64,3.0,9.0,72,0.00,,,0.00,,2013-02-10 02:42:00,
2013-02-09 21:52:00,71.0,62.0,30.16,ESE,108,4.0,7.0,73,0.00,,,0.00,,2013-02-10 02:52:00,
2013-02-09 22:02:00,71.0,62.0,30.16,North,355,3.0,7.0,73,0.00,,,0.00,,2013-02-10 03:02:00,
2013-02-09 22:11:00,71.0,62.0,30.16,North,355,3.0,7.0,73,0.00,,,0.00,,2013-02-10 03:11:00,
2013-02-09 22:22:00,71.0,62.0,30.16,East,90,4.0,7.0,73,0.00,,,0.00,,2013-02-10 03:22:00,
2013-02-09 22:32:00,70.0,61.0,30.17,SE,145,4.0,7.0,73,0.00,,,0.00,,2013-02-10 03:32:00,
2013-02-09 22:42:00,70.0,61.0,30.17,SE,145,4.0,7.0,73,0.00,,,0.00,,2013-02-10 03:42:00,
2013-02-09 22:52:00,70.0,61.0,30.17,WSW,249,3.0,8.0,73,0.00,,,0.00,,2013-02-10 03:52:00,
2013-02-09 23:01:00,70.0,61.0,30.17,ESE,105,3.0,6.0,73,0.00,,,0.00,,2013-02-10 04:01:00,
2013-02-09 23:11:00,70.0,61.0,30.17,ESE,105,3.0,6.0,73,0.00,,,0.00,,2013-02-10 04:11:00,
2013-02-09 23:22:00,70.0,61.0,30.17,ENE,67,4.0,7.0,73,0.00,,,0.00,,2013-02-10 04:22:00,
2013-02-09 23:32:00,70.0,60.0,30.18,SSW,208,5.0,7.0,71,0.00,,,0.00,,2013-02-10 04:32:00,
2013-02-09 23:42:00,70.0,60.0,30.18,SSW,208,5.0,7.0,71,0.00,,,0.00,,2013-02-10 04:42:00,
2013-02-09 23:52:00,70.0,60.0,30.17,South,178,3.0,7.0,71,0.00,,,0.00,,2013-02-10 04:52:00,